| time (UTC) | temp C | wind direction | speed KPH | gust KPH | rain 1hr cm | rain 24hr cm | rain mn cm | humidity % | barometer mb |
| 20260510024834 | 26 | 297 | 12.9 | 14.5 | 0.00 | 0.30 | 0.30 | 80 | 1014.1 |
| 20260510023833 | 26 | 322 | 11.3 | 14.5 | 0.00 | 0.30 | 0.30 | 78 | 1014.1 |
| 20260510022804 | 26 | 303 | 11.3 | 12.9 | 0.00 | 0.30 | 0.30 | 78 | 1014.2 |
| 20260510021749 | 26 | 294 | 9.7 | 14.5 | 0.00 | 0.30 | 0.30 | 79 | 1014.0 |
| 20260510020716 | 26 | 261 | 14.5 | 17.7 | 0.00 | 0.30 | 0.30 | 80 | 1014.0 |
| 20260510015650 | 26 | 225 | 17.7 | 25.7 | 0.00 | 0.30 | 0.30 | 80 | 1013.8 |
| 20260510014627 | 27 | 199 | 3.2 | 25.7 | 0.00 | 0.30 | 0.30 | 80 | 1013.7 |
| 20260510013601 | 26 | 333 | 3.2 | 11.3 | 0.00 | 0.30 | 0.30 | 80 | 1013.0 |
| 20260510012612 | 26 | 346 | 3.2 | 11.3 | 0.00 | 0.30 | 0.30 | 80 | 1012.8 |
| 20260510011632 | 26 | 339 | 4.8 | 8.0 | 0.00 | 0.30 | 0.30 | 81 | 1012.6 |
| 20260510010613 | 26 | 326 | 3.2 | 14.5 | 0.00 | 0.30 | 0.30 | 80 | 1012.5 |
| 20260510005546 | 26 | 340 | 11.3 | 22.5 | 0.00 | 0.30 | 0.30 | 80 | 1012.3 |
| 20260510004518 | 26 | 323 | 16.1 | 25.7 | 0.13 | 0.30 | 0.30 | 81 | 1012.2 |
| 20260510003521 | 26 | 309 | 19.3 | 25.7 | 0.64 | 0.30 | 0.30 | 80 | 1012.3 |
| 20260510002508 | 27 | 296 | 16.1 | 24.1 | 0.00 | 0.23 | 0.23 | 78 | 1012.5 |
| 20260510001459 | 26 | 317 | 11.3 | 24.1 | 0.13 | 0.23 | 0.23 | 81 | 1012.3 |
| 20260510000428 | 26 | 46 | 6.4 | 46.7 | 0.13 | 0.20 | 0.20 | 82 | 1012.1 |
| 20260509235445 | 26 | 355 | 22.5 | 46.7 | 1.24 | 0.20 | 0.20 | 79 | 1011.8 |
| 20260509233259 | 28 | 158 | 19.3 | 33.8 | 0.00 | 0.00 | 0.00 | 80 | 1010.5 |
| 20260509232316 | 28 | 141 | 20.9 | 37.0 | 0.00 | 0.00 | 0.00 | 80 | 1010.5 |
| 20260509231253 | 28 | 132 | 20.9 | 37.0 | 0.00 | 0.00 | 0.00 | 80 | 1010.3 |
| 20260509230257 | 28 | 138 | 19.3 | 29.0 | 0.00 | 0.00 | 0.00 | 80 | 1010.3 |
| 20260509225244 | 28 | 138 | 17.7 | 30.6 | 0.00 | 0.00 | 0.00 | 81 | 1010.5 |
| 20260509224236 | 28 | 146 | 16.1 | 30.6 | 0.00 | 0.00 | 0.00 | 80 | 1010.5 |
| 20260509222103 | 28 | 151 | 16.1 | 25.7 | 0.00 | 0.00 | 0.00 | 80 | 1010.4 |
| 20260509221108 | 28 | 144 | 17.7 | 33.8 | 0.00 | 0.00 | 0.00 | 79 | 1010.5 |
| 20260509214948 | 28 | 150 | 19.3 | 32.2 | 0.00 | 0.00 | 0.00 | 78 | 1010.4 |
| 20260509211702 | 28 | 163 | 20.9 | 35.4 | 0.00 | 0.00 | 0.00 | 76 | 1010.4 |
| 20260509210657 | 28 | 137 | 19.3 | 32.2 | 0.00 | 0.00 | 0.00 | 76 | 1010.6 |
| 20260509204457 | 28 | 119 | 20.9 | 33.8 | 0.00 | 0.00 | 0.00 | 75 | 1010.5 |
| 20260509203510 | 29 | 121 | 20.9 | 33.8 | 0.00 | 0.00 | 0.00 | 73 | 1010.6 |
| 20260509202508 | 28 | 125 | 20.9 | 35.4 | 0.00 | 0.00 | 0.00 | 74 | 1010.6 |
| 20260509201528 | 28 | 122 | 19.3 | 38.6 | 0.00 | 0.00 | 0.00 | 74 | 1010.6 |
| 20260509200531 | 28 | 117 | 19.3 | 38.6 | 0.00 | 0.00 | 0.00 | 76 | 1010.7 |
| 20260509195514 | 28 | 124 | 16.1 | 29.0 | 0.00 | 0.00 | 0.00 | 75 | 1010.9 |
| 20260509194530 | 29 | 123 | 12.9 | 25.7 | 0.00 | 0.00 | 0.00 | 74 | 1011.1 |
| 20260509193550 | 28 | 161 | 16.1 | 29.0 | 0.00 | 0.00 | 0.00 | 75 | 1011.2 |
| 20260509191356 | 30 | 136 | 12.9 | 25.7 | 0.00 | 0.00 | 0.00 | 72 | 1011.4 |
| 20260509190328 | 30 | 139 | 12.9 | 25.7 | 0.00 | 0.00 | 0.00 | 69 | 1011.4 |
| 20260509184125 | 32 | 194 | 14.5 | 22.5 | 0.00 | 0.00 | 0.00 | 50 | 1011.8 |
| 20260509181942 | 32 | 204 | 17.7 | 24.1 | 0.00 | 0.00 | 0.00 | 55 | 1011.9 |
| 20260509180922 | 32 | 221 | 12.9 | 24.1 | 0.00 | 0.00 | 0.00 | 55 | 1011.9 |
| 20260509175851 | 32 | 196 | 17.7 | 29.0 | 0.00 | 0.00 | 0.00 | 51 | 1011.9 |
| 20260509174853 | 31 | 225 | 19.3 | 29.0 | 0.00 | 0.00 | 0.00 | 58 | 1012.0 |
| 20260509173821 | 31 | 192 | 17.7 | 30.6 | 0.00 | 0.00 | 0.00 | 57 | 1012.0 |
| 20260509172837 | 31 | 221 | 20.9 | 30.6 | 0.00 | 0.00 | 0.00 | 57 | 1012.1 |
| 20260509171825 | 31 | 191 | 17.7 | 27.4 | 0.00 | 0.00 | 0.00 | 60 | 1012.2 |
| 20260509170842 | 31 | 200 | 12.9 | 22.5 | 0.00 | 0.00 | 0.00 | 57 | 1012.2 |
| 20260509165830 | 31 | 198 | 16.1 | 20.9 | 0.00 | 0.00 | 0.00 | 62 | 1012.3 |
| 20260509164813 | 30 | 205 | 14.5 | 24.1 | 0.00 | 0.00 | 0.00 | 61 | 1012.4 |
| 20260509163829 | 31 | 195 | 16.1 | 24.1 | 0.00 | 0.00 | 0.00 | 58 | 1012.7 |
| 20260509162820 | 30 | 208 | 17.7 | 24.1 | 0.00 | 0.00 | 0.00 | 57 | 1012.7 |
| 20260509155547 | 30 | 214 | 19.3 | 29.0 | 0.00 | 0.00 | 0.00 | 58 | 1013.0 |
| 20260509154541 | 30 | 200 | 20.9 | 29.0 | 0.00 | 0.00 | 0.00 | 65 | 1013.1 |
| 20260509152415 | 30 | 180 | 19.3 | 25.7 | 0.00 | 0.00 | 0.00 | 62 | 1013.3 |
| 20260509151437 | 30 | 175 | 17.7 | 25.7 | 0.00 | 0.00 | 0.00 | 64 | 1013.5 |
| 20260509150415 | 29 | 220 | 19.3 | 25.7 | 0.00 | 0.00 | 0.00 | 60 | 1013.5 |
| 20260509145355 | 29 | 192 | 19.3 | 24.1 | 0.00 | 0.00 | 0.00 | 62 | 1013.6 |
| 20260509144330 | 28 | 200 | 14.5 | 20.9 | 0.00 | 0.00 | 0.00 | 64 | 1013.5 |
| 20260509143332 | 28 | 187 | 12.9 | 19.3 | 0.00 | 0.00 | 0.00 | 67 | 1013.4 |
| 20260509141208 | 28 | 196 | 11.3 | 16.1 | 0.00 | 0.00 | 0.00 | 71 | 1013.4 |
| 20260509140158 | 27 | 197 | 6.4 | 14.5 | 0.00 | 0.00 | 0.00 | 76 | 1013.4 |
| 20260509135206 | 26 | 178 | 4.8 | 11.3 | 0.00 | 0.00 | 0.00 | 79 | 1013.5 |
| 20260509134218 | 26 | 178 | 4.8 | 11.3 | 0.00 | 0.00 | 0.00 | 81 | 1013.6 |
| 20260509133227 | 26 | 148 | 3.2 | 8.0 | 0.00 | 0.00 | 0.00 | 82 | 1013.6 |
| 20260509131115 | 25 | 161 | 3.2 | 8.0 | 0.00 | 0.00 | 0.00 | 84 | 1013.7 |
| 20260509130131 | 25 | 194 | 4.8 | 8.0 | 0.00 | 0.00 | 0.00 | 84 | 1013.4 |
| 20260509125140 | 25 | 169 | 6.4 | 9.7 | 0.00 | 0.00 | 0.00 | 85 | 1013.4 |
| 20260509124117 | 25 | 167 | 6.4 | 11.3 | 0.00 | 0.00 | 0.00 | 85 | 1013.2 |
| 20260509123052 | 24 | 193 | 9.7 | 14.5 | 0.00 | 0.00 | 0.00 | 86 | 1013.1 |
| 20260509122053 | 24 | 193 | 11.3 | 14.5 | 0.00 | 0.00 | 0.00 | 86 | 1013.1 |
| 20260509121114 | 24 | 195 | 12.9 | 16.1 | 0.00 | 0.00 | 0.00 | 86 | 1013.1 |
| 20260509113920 | 24 | 198 | 11.3 | 14.5 | 0.00 | 0.00 | 0.00 | 86 | 1013.1 |
| 20260509112903 | 24 | 209 | 11.3 | 14.5 | 0.00 | 0.00 | 0.00 | 86 | 1013.1 |
| 20260509110752 | 24 | 207 | 8.0 | 11.3 | 0.00 | 0.00 | 0.00 | 86 | 1012.9 |
| 20260509105757 | 24 | 207 | 4.8 | 9.7 | 0.00 | 0.00 | 0.00 | 86 | 1012.9 |
| 20260509104813 | 24 | 237 | 6.4 | 8.0 | 0.00 | 0.00 | 0.00 | 86 | 1012.9 |
| 20260509103831 | 25 | 233 | 8.0 | 12.9 | 0.00 | 0.00 | 0.00 | 86 | 1012.6 |
| 20260509102823 | 25 | 198 | 11.3 | 16.1 | 0.00 | 0.00 | 0.00 | 86 | 1012.5 |
| 20260509101838 | 25 | 180 | 12.9 | 17.7 | 0.00 | 0.00 | 0.00 | 85 | 1012.5 |
| 20260509100854 | 25 | 178 | 12.9 | 19.3 | 0.00 | 0.00 | 0.00 | 85 | 1012.3 |
| 20260509095841 | 25 | 192 | 12.9 | 19.3 | 0.00 | 0.00 | 0.00 | 85 | 1012.3 |
| 20260509094822 | 25 | 140 | 12.9 | 17.7 | 0.00 | 0.00 | 0.00 | 84 | 1012.3 |
| 20260509093817 | 25 | 155 | 11.3 | 17.7 | 0.00 | 0.00 | 0.00 | 84 | 1012.3 |
| 20260509092751 | 25 | 160 | 9.7 | 16.1 | 0.00 | 0.00 | 0.00 | 84 | 1012.2 |
| 20260509090602 | 25 | 160 | 8.0 | 14.5 | 0.00 | 0.00 | 0.00 | 83 | 1012.3 |
| 20260509085537 | 25 | 161 | 8.0 | 14.5 | 0.00 | 0.00 | 0.00 | 83 | 1012.3 |
| 20260509084547 | 25 | 178 | 9.7 | 14.5 | 0.00 | 0.00 | 0.00 | 82 | 1012.5 |
| 20260509083516 | 25 | 184 | 8.0 | 11.3 | 0.00 | 0.00 | 0.00 | 82 | 1012.5 |
| 20260509082442 | 26 | 172 | 8.0 | 11.3 | 0.00 | 0.00 | 0.00 | 82 | 1012.5 |
| 20260509080345 | 26 | 176 | 4.8 | 8.0 | 0.00 | 0.00 | 0.00 | 82 | 1012.5 |
| 20260509075333 | 26 | 170 | 3.2 | 8.0 | 0.00 | 0.00 | 0.00 | 81 | 1012.6 |
| 20260509074349 | 26 | 190 | 4.8 | 8.0 | 0.00 | 0.00 | 0.00 | 81 | 1012.6 |
| 20260509073338 | 26 | 196 | 6.4 | 9.7 | 0.00 | 0.00 | 0.00 | 81 | 1012.6 |
| 20260509072310 | 26 | 201 | 6.4 | 9.7 | 0.00 | 0.00 | 0.00 | 80 | 1012.7 |
| 20260509071321 | 26 | 205 | 4.8 | 6.4 | 0.00 | 0.00 | 0.00 | 80 | 1012.9 |
| 20260509070247 | 26 | 191 | 1.6 | 4.8 | 0.00 | 0.00 | 0.00 | 80 | 1013.0 |
| 20260509065306 | 26 | 208 | 1.6 | 4.8 | 0.00 | 0.00 | 0.00 | 80 | 1013.1 |
| 20260509063116 | 26 | 243 | 3.2 | 8.0 | 0.00 | 0.00 | 0.00 | 81 | 1013.3 |
| 20260509060934 | 26 | 267 | 6.4 | 12.9 | 0.00 | 0.00 | 0.00 | 81 | 1013.5 |
| 20260509055943 | 26 | 288 | 8.0 | 12.9 | 0.00 | 0.00 | 0.00 | 81 | 1013.5 |
| 20260509054919 | 25 | 309 | 4.8 | 11.3 | 0.00 | 0.00 | 0.00 | 82 | 1013.6 |
| 20260509050523 | 26 | 269 | 11.3 | 24.1 | 0.00 | 0.00 | 0.00 | 82 | 1014.0 |
| 20260509045530 | 26 | 291 | 16.1 | 24.1 | 0.00 | 0.00 | 0.00 | 82 | 1014.2 |
| 20260509044518 | 26 | 295 | 14.5 | 19.3 | 0.00 | 0.00 | 0.00 | 81 | 1014.1 |
| 20260509043455 | 26 | 277 | 12.9 | 24.1 | 0.00 | 0.00 | 0.00 | 81 | 1014.1 |
| 20260509041419 | 26 | 198 | 11.3 | 17.7 | 0.00 | 0.00 | 0.00 | 81 | 1013.6 |
| 20260509040404 | 26 | 184 | 14.5 | 19.3 | 0.00 | 0.00 | 0.00 | 81 | 1013.4 |
| 20260509034301 | 26 | 170 | 12.9 | 17.7 | 0.00 | 0.00 | 0.00 | 82 | 1013.3 |
| 20260509033311 | 27 | 202 | 12.9 | 17.7 | 0.00 | 0.00 | 0.00 | 81 | 1013.3 |
| 20260509032307 | 27 | 175 | 12.9 | 20.9 | 0.00 | 0.00 | 0.00 | 81 | 1013.4 |
| 20260509031242 | 27 | 155 | 11.3 | 22.5 | 0.00 | 0.00 | 0.00 | 82 | 1013.5 |
| 20260509030254 | 27 | 153 | 16.1 | 24.1 | 0.00 | 0.00 | 0.00 | 81 | 1013.5 |
| 20260509025315 | 27 | 170 | 14.5 | 24.1 | 0.00 | 0.00 | 0.00 | 82 | 1013.4 |